Year,Month,Day,Hour,Minute,Value (Times are PST for temperature in C)
2013,09,12,00,00,18.10
2013,09,12,00,01,18.10
2013,09,12,00,02,18.10
2013,09,12,00,03,18.00
2013,09,12,00,04,18.00
2013,09,12,00,05,18.00
2013,09,12,00,06,17.90
2013,09,12,00,07,17.90
2013,09,12,00,08,17.90
2013,09,12,00,09,17.90
2013,09,12,00,10,17.80
2013,09,12,00,11,17.80
2013,09,12,00,12,17.80
2013,09,12,00,13,17.80
2013,09,12,00,14,17.80
2013,09,12,00,15,17.80
2013,09,12,00,16,17.70
2013,09,12,00,17,17.70
2013,09,12,00,18,17.70
2013,09,12,00,19,17.70
2013,09,12,00,20,17.70
2013,09,12,00,21,17.70
2013,09,12,00,22,17.70
2013,09,12,00,23,17.70
2013,09,12,00,24,17.70
2013,09,12,00,25,17.60
2013,09,12,00,26,17.60
2013,09,12,00,27,17.60
2013,09,12,00,28,17.60
2013,09,12,00,29,17.60
2013,09,12,00,30,17.60
2013,09,12,00,31,17.50
2013,09,12,00,32,17.50
2013,09,12,00,33,17.50
2013,09,12,00,34,17.50
2013,09,12,00,35,17.50
2013,09,12,00,36,17.50
2013,09,12,00,37,17.50
2013,09,12,00,38,17.40
2013,09,12,00,39,17.40
2013,09,12,00,40,17.40
2013,09,12,00,41,17.40
2013,09,12,00,42,17.40
2013,09,12,00,43,17.40
2013,09,12,00,44,17.40
2013,09,12,00,45,17.40
2013,09,12,00,46,17.40
2013,09,12,00,47,17.40
2013,09,12,00,48,17.40
2013,09,12,00,49,17.30
2013,09,12,00,50,17.30
2013,09,12,00,51,17.30
2013,09,12,00,52,17.30
2013,09,12,00,53,17.30
2013,09,12,00,54,17.30
2013,09,12,00,55,17.30
2013,09,12,00,56,17.30
2013,09,12,00,57,17.30
2013,09,12,00,58,17.30
2013,09,12,00,59,17.20
2013,09,12,01,00,17.20
2013,09,12,01,01,17.20
2013,09,12,01,02,17.20
2013,09,12,01,03,17.20
2013,09,12,01,04,17.20
2013,09,12,01,05,17.10
2013,09,12,01,06,17.10
2013,09,12,01,07,17.10
2013,09,12,01,08,17.10
2013,09,12,01,09,17.10
2013,09,12,01,10,17.10
2013,09,12,01,11,17.10
2013,09,12,01,12,17.10
2013,09,12,01,13,17.00
2013,09,12,01,14,17.00
2013,09,12,01,15,17.00
2013,09,12,01,16,16.90
2013,09,12,01,17,16.90
2013,09,12,01,18,16.90
2013,09,12,01,19,16.90
2013,09,12,01,20,16.90
2013,09,12,01,21,16.80
2013,09,12,01,22,16.80
2013,09,12,01,23,16.80
2013,09,12,01,24,16.80
2013,09,12,01,25,16.80
2013,09,12,01,26,16.80
2013,09,12,01,27,16.80
2013,09,12,01,28,16.80
2013,09,12,01,29,16.90
2013,09,12,01,30,16.90
2013,09,12,01,31,16.90
2013,09,12,01,32,16.90
2013,09,12,01,33,16.90
2013,09,12,01,34,16.90
2013,09,12,01,35,16.90
2013,09,12,01,36,16.90
2013,09,12,01,37,16.90
2013,09,12,01,38,16.90
2013,09,12,01,39,16.90
2013,09,12,01,40,16.90
2013,09,12,01,41,16.90
2013,09,12,01,42,16.90
2013,09,12,01,43,16.90
2013,09,12,01,44,16.90
2013,09,12,01,45,16.90
2013,09,12,01,46,16.90
2013,09,12,01,47,16.90
2013,09,12,01,48,16.90
2013,09,12,01,49,16.90
2013,09,12,01,50,16.90
2013,09,12,01,51,16.80
2013,09,12,01,52,16.90
2013,09,12,01,53,16.90
2013,09,12,01,54,16.90
2013,09,12,01,55,16.90
2013,09,12,01,56,16.90
2013,09,12,01,57,16.90
2013,09,12,01,58,16.90
2013,09,12,01,59,16.90
2013,09,12,02,00,16.90
2013,09,12,02,01,16.90
2013,09,12,02,02,16.90
2013,09,12,02,03,16.90
2013,09,12,02,04,16.90
2013,09,12,02,05,16.90
2013,09,12,02,06,16.90
2013,09,12,02,07,16.90
2013,09,12,02,08,16.90
2013,09,12,02,09,16.90
2013,09,12,02,10,16.90
2013,09,12,02,11,16.90
2013,09,12,02,12,16.80
2013,09,12,02,13,16.80
2013,09,12,02,14,16.80
2013,09,12,02,15,16.80
2013,09,12,02,16,16.80
2013,09,12,02,17,16.80
2013,09,12,02,18,16.70
2013,09,12,02,19,16.70
2013,09,12,02,20,16.70
2013,09,12,02,21,16.70
2013,09,12,02,22,16.70
2013,09,12,02,23,16.70
2013,09,12,02,24,16.70
2013,09,12,02,25,16.80
2013,09,12,02,26,16.80
2013,09,12,02,27,16.80
2013,09,12,02,28,16.80
2013,09,12,02,29,16.80
2013,09,12,02,30,16.80
2013,09,12,02,31,16.80
2013,09,12,02,32,16.80
2013,09,12,02,33,16.80
2013,09,12,02,34,16.80
2013,09,12,02,35,16.80
2013,09,12,02,36,16.90
2013,09,12,02,37,16.90
2013,09,12,02,38,16.90
2013,09,12,02,39,16.90
2013,09,12,02,40,16.90
2013,09,12,02,41,16.90
2013,09,12,02,42,16.90
2013,09,12,02,43,16.90
2013,09,12,02,44,16.90
2013,09,12,02,45,16.90
2013,09,12,02,46,16.90
2013,09,12,02,47,16.90
2013,09,12,02,48,16.80
2013,09,12,02,49,16.80
2013,09,12,02,50,16.80
2013,09,12,02,51,16.80
2013,09,12,02,52,16.80
2013,09,12,02,53,16.80
2013,09,12,02,54,16.80
2013,09,12,02,55,16.70
2013,09,12,02,56,16.70
2013,09,12,02,57,16.70
2013,09,12,02,58,16.60
2013,09,12,02,59,16.60
2013,09,12,03,00,16.60
2013,09,12,03,01,16.50
2013,09,12,03,02,16.40
2013,09,12,03,03,16.40
2013,09,12,03,04,16.30
2013,09,12,03,05,16.30
2013,09,12,03,06,16.30
2013,09,12,03,07,16.30
2013,09,12,03,08,16.20
2013,09,12,03,09,16.20
2013,09,12,03,10,16.20
2013,09,12,03,11,16.20
2013,09,12,03,12,16.20
2013,09,12,03,13,16.20
2013,09,12,03,14,16.20
2013,09,12,03,15,16.30
2013,09,12,03,16,16.30
2013,09,12,03,17,16.30
2013,09,12,03,18,16.30
2013,09,12,03,19,16.40
2013,09,12,03,20,16.40
2013,09,12,03,21,16.40
2013,09,12,03,22,16.40
2013,09,12,03,23,16.40
2013,09,12,03,24,16.40
2013,09,12,03,25,16.50
2013,09,12,03,26,16.50
2013,09,12,03,27,16.50
2013,09,12,03,28,16.50
2013,09,12,03,29,16.50
2013,09,12,03,30,16.50
2013,09,12,03,31,16.40
2013,09,12,03,32,16.40
2013,09,12,03,33,16.40
2013,09,12,03,34,16.40
2013,09,12,03,35,16.40
2013,09,12,03,36,16.40
2013,09,12,03,37,16.40
2013,09,12,03,38,16.40
2013,09,12,03,39,16.40
2013,09,12,03,40,16.40
2013,09,12,03,41,16.40
2013,09,12,03,42,16.40
2013,09,12,03,43,16.40
2013,09,12,03,44,16.40
2013,09,12,03,45,16.40
2013,09,12,03,46,16.40
2013,09,12,03,47,16.40
2013,09,12,03,48,16.40
2013,09,12,03,49,16.40
2013,09,12,03,50,16.40
2013,09,12,03,51,16.40
2013,09,12,03,52,16.40
2013,09,12,03,53,16.40
2013,09,12,03,54,16.40
2013,09,12,03,55,16.40
2013,09,12,03,56,16.30
2013,09,12,03,57,16.30
2013,09,12,03,58,16.30
2013,09,12,03,59,16.30
2013,09,12,04,00,16.30
2013,09,12,04,01,16.30
2013,09,12,04,02,16.30
2013,09,12,04,03,16.30
2013,09,12,04,04,16.30
2013,09,12,04,05,16.20
2013,09,12,04,06,16.20
2013,09,12,04,07,16.20
2013,09,12,04,08,16.20
2013,09,12,04,09,16.20
2013,09,12,04,10,16.20
2013,09,12,04,11,16.20
2013,09,12,04,12,16.20
2013,09,12,04,13,16.20
2013,09,12,04,14,16.20
2013,09,12,04,15,16.20
2013,09,12,04,16,16.20
2013,09,12,04,17,16.20
2013,09,12,04,18,16.20
2013,09,12,04,19,16.20
2013,09,12,04,20,16.20
2013,09,12,04,21,16.20
2013,09,12,04,22,16.20
2013,09,12,04,23,16.20
2013,09,12,04,24,16.20
2013,09,12,04,25,16.20
2013,09,12,04,26,16.20
2013,09,12,04,27,16.20
2013,09,12,04,28,16.20
2013,09,12,04,29,16.20
2013,09,12,04,30,16.10
2013,09,12,04,31,16.10
2013,09,12,04,32,16.10
2013,09,12,04,33,16.10
2013,09,12,04,34,16.10
2013,09,12,04,35,16.00
2013,09,12,04,36,16.00
2013,09,12,04,37,16.00
2013,09,12,04,38,16.00
2013,09,12,04,39,16.00
2013,09,12,04,40,16.00
2013,09,12,04,41,16.00
2013,09,12,04,42,16.00
2013,09,12,04,43,16.00
2013,09,12,04,44,16.00
2013,09,12,04,45,16.00
2013,09,12,04,46,16.10
2013,09,12,04,47,16.10
2013,09,12,04,48,16.10
2013,09,12,04,49,16.00
2013,09,12,04,50,16.00
2013,09,12,04,51,16.00
2013,09,12,04,52,16.00
2013,09,12,04,53,16.00
2013,09,12,04,54,16.00
2013,09,12,04,55,16.00
2013,09,12,04,56,16.00
2013,09,12,04,57,15.90
2013,09,12,04,58,15.90
2013,09,12,04,59,16.00
2013,09,12,05,00,16.00
2013,09,12,05,01,16.00
2013,09,12,05,02,16.00
2013,09,12,05,03,16.00
2013,09,12,05,04,16.00
2013,09,12,05,05,16.00
2013,09,12,05,06,16.00
2013,09,12,05,07,16.00
2013,09,12,05,08,16.00
2013,09,12,05,09,16.00
2013,09,12,05,10,15.90
2013,09,12,05,11,15.90
2013,09,12,05,12,15.90
2013,09,12,05,13,15.90
2013,09,12,05,14,15.90
2013,09,12,05,15,15.90
2013,09,12,05,16,15.90
2013,09,12,05,17,15.80
2013,09,12,05,18,15.80
2013,09,12,05,19,15.80
2013,09,12,05,20,15.80
2013,09,12,05,21,15.70
2013,09,12,05,22,15.70
2013,09,12,05,23,15.70
2013,09,12,05,24,15.70
2013,09,12,05,25,15.60
2013,09,12,05,26,15.60
2013,09,12,05,27,15.60
2013,09,12,05,28,15.50
2013,09,12,05,29,15.50
2013,09,12,05,30,15.50
2013,09,12,05,31,15.50
2013,09,12,05,32,15.40
2013,09,12,05,33,15.40
2013,09,12,05,34,15.40
2013,09,12,05,35,15.40
2013,09,12,05,36,15.40
2013,09,12,05,37,15.40
2013,09,12,05,38,15.40
2013,09,12,05,39,15.40
2013,09,12,05,40,15.50
2013,09,12,05,41,15.50
2013,09,12,05,42,15.50
2013,09,12,05,43,15.60
2013,09,12,05,44,15.60
2013,09,12,05,45,15.60
2013,09,12,05,46,15.60
2013,09,12,05,47,15.60
2013,09,12,05,48,15.60
2013,09,12,05,49,15.60
2013,09,12,05,50,15.50
2013,09,12,05,51,15.50
2013,09,12,05,52,15.50
2013,09,12,05,53,15.50
2013,09,12,05,54,15.40
2013,09,12,05,55,15.40
2013,09,12,05,56,15.40
2013,09,12,05,57,15.40
2013,09,12,05,58,15.40
2013,09,12,05,59,15.40
2013,09,12,06,00,15.40
2013,09,12,06,01,15.40
2013,09,12,06,02,15.40
2013,09,12,06,03,15.40
2013,09,12,06,04,15.40
2013,09,12,06,05,15.40
2013,09,12,06,06,15.40
2013,09,12,06,07,15.40
2013,09,12,06,08,15.40
2013,09,12,06,09,15.40
2013,09,12,06,10,15.40
2013,09,12,06,11,15.40
2013,09,12,06,12,15.40
2013,09,12,06,13,15.40
2013,09,12,06,14,15.40
2013,09,12,06,15,15.40
2013,09,12,06,16,15.40
2013,09,12,06,17,15.40
2013,09,12,06,18,15.40
2013,09,12,06,19,15.30
2013,09,12,06,20,15.30
2013,09,12,06,21,15.30
2013,09,12,06,22,15.30
2013,09,12,06,23,15.30
2013,09,12,06,24,15.30
2013,09,12,06,25,15.30
2013,09,12,06,26,15.30
2013,09,12,06,27,15.30
2013,09,12,06,28,15.30
2013,09,12,06,29,15.30
2013,09,12,06,30,15.30
2013,09,12,06,31,15.30
2013,09,12,06,32,15.30
2013,09,12,06,33,15.30
2013,09,12,06,34,15.30
2013,09,12,06,35,15.30
2013,09,12,06,36,15.30
2013,09,12,06,37,15.30
2013,09,12,06,38,15.30
2013,09,12,06,39,15.30
2013,09,12,06,40,15.30
2013,09,12,06,41,15.20
2013,09,12,06,42,15.20
2013,09,12,06,43,15.20
2013,09,12,06,44,15.10
2013,09,12,06,45,15.10
2013,09,12,06,46,15.00
2013,09,12,06,47,15.00
2013,09,12,06,48,15.00
2013,09,12,06,49,15.00
2013,09,12,06,50,15.00
2013,09,12,06,51,15.00
2013,09,12,06,52,15.00
2013,09,12,06,53,15.00
2013,09,12,06,54,15.00
2013,09,12,06,55,15.00
2013,09,12,06,56,15.00
2013,09,12,06,57,15.00
2013,09,12,06,58,15.00
2013,09,12,06,59,15.00
2013,09,12,07,00,15.00
2013,09,12,07,01,15.00
2013,09,12,07,02,15.00
2013,09,12,07,03,15.00
2013,09,12,07,04,15.00
2013,09,12,07,05,15.00
2013,09,12,07,06,15.00
2013,09,12,07,07,15.00
2013,09,12,07,08,15.00
2013,09,12,07,09,15.00
2013,09,12,07,10,15.00
2013,09,12,07,11,15.00
2013,09,12,07,12,15.00
2013,09,12,07,13,15.00
2013,09,12,07,14,15.00
2013,09,12,07,15,15.00
2013,09,12,07,16,15.00
2013,09,12,07,17,15.00
2013,09,12,07,18,15.00
2013,09,12,07,19,15.00
2013,09,12,07,20,15.00
2013,09,12,07,21,15.00
2013,09,12,07,22,15.00
2013,09,12,07,23,15.00
2013,09,12,07,24,15.00
2013,09,12,07,25,15.00
2013,09,12,07,26,15.00
2013,09,12,07,27,15.00
2013,09,12,07,28,15.00
2013,09,12,07,29,15.00
2013,09,12,07,30,15.00
2013,09,12,07,31,15.00
2013,09,12,07,32,15.00
2013,09,12,07,33,15.00
2013,09,12,07,34,15.00
2013,09,12,07,35,15.00
2013,09,12,07,36,15.00
2013,09,12,07,37,15.00
2013,09,12,07,38,15.00
2013,09,12,07,39,15.00
2013,09,12,07,40,15.10
2013,09,12,07,41,15.10
2013,09,12,07,42,15.10
2013,09,12,07,43,15.10
2013,09,12,07,44,15.10
2013,09,12,07,45,15.10
2013,09,12,07,46,15.20
2013,09,12,07,47,15.20
2013,09,12,07,48,15.20
2013,09,12,07,49,15.20
2013,09,12,07,50,15.20
2013,09,12,07,51,15.20
2013,09,12,07,52,15.20
2013,09,12,07,53,15.30
2013,09,12,07,54,15.30
2013,09,12,07,55,15.30
2013,09,12,07,56,15.40
2013,09,12,07,57,15.40
2013,09,12,07,58,15.40
2013,09,12,07,59,15.40
2013,09,12,08,00,15.40
2013,09,12,08,01,15.50
2013,09,12,08,02,15.50
2013,09,12,08,03,15.60
2013,09,12,08,04,15.60
2013,09,12,08,05,15.60
2013,09,12,08,06,15.70
2013,09,12,08,07,15.70
2013,09,12,08,08,15.70
2013,09,12,08,09,15.80
2013,09,12,08,10,15.80
2013,09,12,08,11,15.80
2013,09,12,08,12,15.80
2013,09,12,08,13,15.90
2013,09,12,08,14,15.90
2013,09,12,08,15,15.90
2013,09,12,08,16,15.90
2013,09,12,08,17,16.00
2013,09,12,08,18,16.00
2013,09,12,08,19,16.00
2013,09,12,08,20,16.10
2013,09,12,08,21,16.10
2013,09,12,08,22,16.10
2013,09,12,08,23,16.20
2013,09,12,08,24,16.20
2013,09,12,08,25,16.20
2013,09,12,08,26,16.20
2013,09,12,08,27,16.30
2013,09,12,08,28,16.30
2013,09,12,08,29,16.30
2013,09,12,08,30,16.40
2013,09,12,08,31,16.40
2013,09,12,08,32,16.50
2013,09,12,08,33,16.50
2013,09,12,08,34,16.50
2013,09,12,08,35,16.60
2013,09,12,08,36,16.60
2013,09,12,08,37,16.70
2013,09,12,08,38,16.70
2013,09,12,08,39,16.70
2013,09,12,08,40,16.80
2013,09,12,08,41,16.80
2013,09,12,08,42,16.80
2013,09,12,08,43,16.90
2013,09,12,08,44,16.90
2013,09,12,08,45,17.00
2013,09,12,08,46,17.10
2013,09,12,08,47,17.10
2013,09,12,08,48,17.20
2013,09,12,08,49,17.20
2013,09,12,08,50,17.20
2013,09,12,08,51,17.30
2013,09,12,08,52,17.30
2013,09,12,08,53,17.40
2013,09,12,08,54,17.40
2013,09,12,08,55,17.40
2013,09,12,08,56,17.50
2013,09,12,08,57,17.60
2013,09,12,08,58,17.60
2013,09,12,08,59,17.70
2013,09,12,09,00,17.80
2013,09,12,09,01,17.90
2013,09,12,09,02,17.90
2013,09,12,09,03,18.00
2013,09,12,09,04,18.10
2013,09,12,09,05,18.10
2013,09,12,09,06,18.20
2013,09,12,09,07,18.20
2013,09,12,09,08,18.30
2013,09,12,09,09,18.30
2013,09,12,09,10,18.40
2013,09,12,09,11,18.40
2013,09,12,09,12,18.50
2013,09,12,09,13,18.50
2013,09,12,09,14,18.60
2013,09,12,09,15,18.60
2013,09,12,09,16,18.70
2013,09,12,09,17,18.80
2013,09,12,09,18,18.80
2013,09,12,09,19,18.90
2013,09,12,09,20,18.90
2013,09,12,09,21,19.00
2013,09,12,09,22,19.10
2013,09,12,09,23,19.20
2013,09,12,09,24,19.20
2013,09,12,09,25,19.30
2013,09,12,09,26,19.30
2013,09,12,09,27,19.40
2013,09,12,09,28,19.50
2013,09,12,09,29,19.60
2013,09,12,09,30,19.70
2013,09,12,09,31,19.80
2013,09,12,09,32,19.80
2013,09,12,09,33,19.90
2013,09,12,09,34,20.00
2013,09,12,09,35,20.00
2013,09,12,09,36,20.10
2013,09,12,09,37,20.10
2013,09,12,09,38,20.20
2013,09,12,09,39,20.30
2013,09,12,09,40,20.40
2013,09,12,09,41,20.50
2013,09,12,09,42,20.60
2013,09,12,09,43,20.60
2013,09,12,09,44,20.70
2013,09,12,09,45,20.80
2013,09,12,09,46,20.90
2013,09,12,09,47,20.90
2013,09,12,09,48,21.00
2013,09,12,09,49,21.00
2013,09,12,09,50,21.10
2013,09,12,09,51,21.10
2013,09,12,09,52,21.20
2013,09,12,09,53,21.20
2013,09,12,09,54,21.20
2013,09,12,09,55,21.20
2013,09,12,09,56,21.30
2013,09,12,09,57,21.30
2013,09,12,09,58,21.30
2013,09,12,09,59,21.30
2013,09,12,10,00,21.40
2013,09,12,10,01,21.40
2013,09,12,10,02,21.50
2013,09,12,10,03,21.50
2013,09,12,10,04,21.60
2013,09,12,10,05,21.60
2013,09,12,10,06,21.70
2013,09,12,10,07,21.80
2013,09,12,10,08,21.80
2013,09,12,10,09,21.90
2013,09,12,10,10,22.10
2013,09,12,10,11,22.20
2013,09,12,10,12,22.40
2013,09,12,10,13,22.50
2013,09,12,10,14,22.60
2013,09,12,10,15,22.70
2013,09,12,10,16,22.80
2013,09,12,10,17,23.00
2013,09,12,10,18,23.10
2013,09,12,10,19,23.20
2013,09,12,10,20,23.30
2013,09,12,10,21,23.40
2013,09,12,10,22,23.50
2013,09,12,10,23,23.60
2013,09,12,10,24,23.70
2013,09,12,10,25,23.70
2013,09,12,10,26,23.80
2013,09,12,10,27,23.90
2013,09,12,10,28,24.00
2013,09,12,10,29,24.00
2013,09,12,10,30,24.10
2013,09,12,10,31,24.10
2013,09,12,10,32,24.10
2013,09,12,10,33,24.20
2013,09,12,10,34,24.20
2013,09,12,10,35,24.20
2013,09,12,10,36,24.30
2013,09,12,10,37,24.30
2013,09,12,10,38,24.40
2013,09,12,10,39,24.40
2013,09,12,10,40,24.50
2013,09,12,10,41,24.50
2013,09,12,10,42,24.60
2013,09,12,10,43,24.70
2013,09,12,10,44,24.80
2013,09,12,10,45,24.90
2013,09,12,10,46,24.90
2013,09,12,10,47,25.00
2013,09,12,10,48,25.10
2013,09,12,10,49,25.10
2013,09,12,10,50,25.20
2013,09,12,10,51,25.30
2013,09,12,10,52,25.30
2013,09,12,10,53,25.40
2013,09,12,10,54,25.40
2013,09,12,10,55,25.50
2013,09,12,10,56,25.60
2013,09,12,10,57,25.60
2013,09,12,10,58,25.70
2013,09,12,10,59,25.70
2013,09,12,11,00,25.70
2013,09,12,11,01,25.80
2013,09,12,11,02,25.90
2013,09,12,11,03,25.90
2013,09,12,11,04,25.90
2013,09,12,11,05,25.90
2013,09,12,11,06,25.90
2013,09,12,11,07,26.00
2013,09,12,11,08,26.00
2013,09,12,11,09,26.10
2013,09,12,11,10,26.10
2013,09,12,11,11,26.10
2013,09,12,11,12,26.10
2013,09,12,11,13,26.10
2013,09,12,11,14,26.10
2013,09,12,11,15,26.20
2013,09,12,11,16,26.20
2013,09,12,11,17,26.20
2013,09,12,11,18,26.20
2013,09,12,11,19,26.30
2013,09,12,11,20,26.30
2013,09,12,11,21,26.30
2013,09,12,11,22,26.30
2013,09,12,11,23,26.20
2013,09,12,11,24,26.20
2013,09,12,11,25,26.30
2013,09,12,11,26,26.30
2013,09,12,11,27,26.30
2013,09,12,11,28,26.30
2013,09,12,11,29,26.40
2013,09,12,11,30,26.40
2013,09,12,11,31,26.50
2013,09,12,11,32,26.50
2013,09,12,11,33,26.60
2013,09,12,11,34,26.60
2013,09,12,11,35,26.60
2013,09,12,11,36,26.70
2013,09,12,11,37,26.70
2013,09,12,11,38,26.70
2013,09,12,11,39,26.70
2013,09,12,11,40,26.70
2013,09,12,11,41,26.70
2013,09,12,11,42,26.70
2013,09,12,11,43,26.80
2013,09,12,11,44,26.80
2013,09,12,11,45,26.80
2013,09,12,11,46,26.90
2013,09,12,11,47,26.90
2013,09,12,11,48,26.90
2013,09,12,11,49,27.00
2013,09,12,11,50,27.00
2013,09,12,11,51,27.00
2013,09,12,11,52,27.10
2013,09,12,11,53,27.10
2013,09,12,11,54,27.10
2013,09,12,11,55,27.10
2013,09,12,11,56,27.10
2013,09,12,11,57,27.10
2013,09,12,11,58,27.10
2013,09,12,11,59,27.10
2013,09,12,12,00,27.10
2013,09,12,12,01,27.10
2013,09,12,12,02,27.10
2013,09,12,12,03,27.10
2013,09,12,12,04,27.10
2013,09,12,12,05,27.10
2013,09,12,12,06,27.10
2013,09,12,12,07,27.10
2013,09,12,12,08,27.10
2013,09,12,12,09,27.10
2013,09,12,12,10,27.10
2013,09,12,12,11,27.10
2013,09,12,12,12,27.10
2013,09,12,12,13,27.10
2013,09,12,12,14,27.00
2013,09,12,12,15,27.00
2013,09,12,12,16,26.90
2013,09,12,12,17,26.90
2013,09,12,12,18,26.80
2013,09,12,12,19,26.80
2013,09,12,12,20,26.80
2013,09,12,12,21,26.80
2013,09,12,12,22,26.70
2013,09,12,12,23,26.70
2013,09,12,12,24,26.80
2013,09,12,12,25,26.80
2013,09,12,12,26,26.80
2013,09,12,12,27,26.80
2013,09,12,12,28,26.80
2013,09,12,12,29,26.90
2013,09,12,12,30,26.90
2013,09,12,12,31,26.90
2013,09,12,12,32,27.00
2013,09,12,12,33,27.00
2013,09,12,12,34,27.10
2013,09,12,12,35,27.10
2013,09,12,12,36,27.20
2013,09,12,12,37,27.20
2013,09,12,12,38,27.20
2013,09,12,12,39,27.30
2013,09,12,12,40,27.30
2013,09,12,12,41,27.30
2013,09,12,12,42,27.30
2013,09,12,12,43,27.40
2013,09,12,12,44,27.40
2013,09,12,12,45,27.40
2013,09,12,12,46,27.40
2013,09,12,12,47,27.40
2013,09,12,12,48,27.40
2013,09,12,12,49,27.40
2013,09,12,12,50,27.40
2013,09,12,12,51,27.40
2013,09,12,12,52,27.50
2013,09,12,12,53,27.50
2013,09,12,12,54,27.50
2013,09,12,12,55,27.60
2013,09,12,12,56,27.60
2013,09,12,12,57,27.70
2013,09,12,12,58,27.70
2013,09,12,12,59,27.70
2013,09,12,13,00,27.70
2013,09,12,13,01,27.80
2013,09,12,13,02,27.80
2013,09,12,13,03,27.90
2013,09,12,13,04,28.00
2013,09,12,13,05,28.00
2013,09,12,13,06,28.10
2013,09,12,13,07,28.10
2013,09,12,13,08,28.10
2013,09,12,13,09,28.10
2013,09,12,13,10,28.10
2013,09,12,13,11,28.10
2013,09,12,13,12,28.10
2013,09,12,13,13,28.20
2013,09,12,13,14,28.20
2013,09,12,13,15,28.20
2013,09,12,13,16,28.20
2013,09,12,13,17,28.20
2013,09,12,13,18,28.30
2013,09,12,13,19,28.30
2013,09,12,13,20,28.30
2013,09,12,13,21,28.30
2013,09,12,13,22,28.30
2013,09,12,13,23,28.30
2013,09,12,13,24,28.30
2013,09,12,13,25,28.30
2013,09,12,13,26,28.30
2013,09,12,13,27,28.30
2013,09,12,13,28,28.30
2013,09,12,13,29,28.30
2013,09,12,13,30,28.30
2013,09,12,13,31,28.30
2013,09,12,13,32,28.30
2013,09,12,13,33,28.30
2013,09,12,13,34,28.30
2013,09,12,13,35,28.40
2013,09,12,13,36,28.40
2013,09,12,13,37,28.30
2013,09,12,13,38,28.30
2013,09,12,13,39,28.20
2013,09,12,13,40,28.20
2013,09,12,13,41,28.20
2013,09,12,13,42,28.20
2013,09,12,13,43,28.20
2013,09,12,13,44,28.30
2013,09,12,13,45,28.30
2013,09,12,13,46,28.30
2013,09,12,13,47,28.40
2013,09,12,13,48,28.40
2013,09,12,13,49,28.40
2013,09,12,13,50,28.50
2013,09,12,13,51,28.60
2013,09,12,13,52,28.60
2013,09,12,13,53,28.60
2013,09,12,13,54,28.60
2013,09,12,13,55,28.70
2013,09,12,13,56,28.70
2013,09,12,13,57,28.70
2013,09,12,13,58,28.70
2013,09,12,13,59,28.80
2013,09,12,14,00,28.80
2013,09,12,14,01,28.70
2013,09,12,14,02,28.70
2013,09,12,14,03,28.70
2013,09,12,14,04,28.70
2013,09,12,14,05,28.70
2013,09,12,14,06,28.70
2013,09,12,14,07,28.70
2013,09,12,14,08,28.70
2013,09,12,14,09,28.70
2013,09,12,14,10,28.70
2013,09,12,14,11,28.80
2013,09,12,14,12,28.90
2013,09,12,14,13,28.90
2013,09,12,14,14,29.00
2013,09,12,14,15,29.00
2013,09,12,14,16,29.00
2013,09,12,14,17,29.10
2013,09,12,14,18,29.10
2013,09,12,14,19,29.10
2013,09,12,14,20,29.10
2013,09,12,14,21,29.10
2013,09,12,14,22,29.20
2013,09,12,14,23,29.20
2013,09,12,14,24,29.20
2013,09,12,14,25,29.20
2013,09,12,14,26,29.30
2013,09,12,14,27,29.30
2013,09,12,14,28,29.30
2013,09,12,14,29,29.30
2013,09,12,14,30,29.40
2013,09,12,14,31,29.40
2013,09,12,14,32,29.40
2013,09,12,14,33,29.50
2013,09,12,14,34,29.50
2013,09,12,14,35,29.40
2013,09,12,14,36,29.40
2013,09,12,14,37,29.40
2013,09,12,14,38,29.40
2013,09,12,14,39,29.40
2013,09,12,14,40,29.40
2013,09,12,14,41,29.40
2013,09,12,14,42,29.40
2013,09,12,14,43,29.40
2013,09,12,14,44,29.40
2013,09,12,14,45,29.40
2013,09,12,14,46,29.30
2013,09,12,14,47,29.30
2013,09,12,14,48,29.30
2013,09,12,14,49,29.30
2013,09,12,14,50,29.40
2013,09,12,14,51,29.40
2013,09,12,14,52,29.40
2013,09,12,14,53,29.40
2013,09,12,14,54,29.50
2013,09,12,14,55,29.50
2013,09,12,14,56,29.60
2013,09,12,14,57,29.60
2013,09,12,14,58,29.70
2013,09,12,14,59,29.80
2013,09,12,15,00,29.80
2013,09,12,15,01,29.90
2013,09,12,15,02,30.00
2013,09,12,15,03,30.10
2013,09,12,15,04,30.20
2013,09,12,15,05,30.30
2013,09,12,15,06,30.30
2013,09,12,15,07,30.40
2013,09,12,15,08,30.40
2013,09,12,15,09,30.40
2013,09,12,15,10,30.50
2013,09,12,15,11,30.50
2013,09,12,15,12,30.50
2013,09,12,15,13,30.40
2013,09,12,15,14,30.40
2013,09,12,15,15,30.40
2013,09,12,15,16,30.40
2013,09,12,15,17,30.40
2013,09,12,15,18,30.40
2013,09,12,15,19,30.40
2013,09,12,15,20,30.40
2013,09,12,15,21,30.40
2013,09,12,15,22,30.40
2013,09,12,15,23,30.40
2013,09,12,15,24,30.40
2013,09,12,15,25,30.40
2013,09,12,15,26,30.30
2013,09,12,15,27,30.30
2013,09,12,15,28,30.20
2013,09,12,15,29,30.20
2013,09,12,15,30,30.10
2013,09,12,15,31,30.00
2013,09,12,15,32,30.00
2013,09,12,15,33,29.90
2013,09,12,15,34,29.90
2013,09,12,15,35,29.80
2013,09,12,15,36,29.80
2013,09,12,15,37,29.80
2013,09,12,15,38,29.80
2013,09,12,15,39,29.90
2013,09,12,15,40,29.90
2013,09,12,15,41,29.90
2013,09,12,15,42,29.90
2013,09,12,15,43,29.90
2013,09,12,15,44,29.90
2013,09,12,15,45,29.80
2013,09,12,15,46,29.80
2013,09,12,15,47,29.80
2013,09,12,15,48,29.80
2013,09,12,15,49,29.80
2013,09,12,15,50,29.80
2013,09,12,15,51,29.70
2013,09,12,15,52,29.70
2013,09,12,15,53,29.60
2013,09,12,15,54,29.50
2013,09,12,15,55,29.40
2013,09,12,15,56,29.30
2013,09,12,15,57,29.20
2013,09,12,15,58,29.20
2013,09,12,15,59,29.20
2013,09,12,16,00,29.20
2013,09,12,16,01,29.20
2013,09,12,16,02,29.30
2013,09,12,16,03,29.30
2013,09,12,16,04,29.30
2013,09,12,16,05,29.30
2013,09,12,16,06,29.30
2013,09,12,16,07,29.20
2013,09,12,16,08,29.20
2013,09,12,16,09,29.10
2013,09,12,16,10,29.10
2013,09,12,16,11,29.00
2013,09,12,16,12,29.00
2013,09,12,16,13,28.90
2013,09,12,16,14,28.90
2013,09,12,16,15,29.00
2013,09,12,16,16,28.90
2013,09,12,16,17,29.00
2013,09,12,16,18,29.00
2013,09,12,16,19,29.10
2013,09,12,16,20,29.10
2013,09,12,16,21,29.00
2013,09,12,16,22,28.90
2013,09,12,16,23,28.80
2013,09,12,16,24,28.80
2013,09,12,16,25,28.80
2013,09,12,16,26,28.80
2013,09,12,16,27,28.80
2013,09,12,16,28,28.80
2013,09,12,16,29,28.80
2013,09,12,16,30,28.70
2013,09,12,16,31,28.70
2013,09,12,16,32,28.80
2013,09,12,16,33,28.80
2013,09,12,16,34,28.80
2013,09,12,16,35,28.90
2013,09,12,16,36,28.90
2013,09,12,16,37,28.90
2013,09,12,16,38,28.90
2013,09,12,16,39,28.80
2013,09,12,16,40,28.80
2013,09,12,16,41,28.80
2013,09,12,16,42,28.80
2013,09,12,16,43,28.80
2013,09,12,16,44,28.80
2013,09,12,16,45,28.80
2013,09,12,16,46,28.90
2013,09,12,16,47,29.00
2013,09,12,16,48,29.10
2013,09,12,16,49,29.20
2013,09,12,16,50,29.30
2013,09,12,16,51,29.40
2013,09,12,16,52,29.40
2013,09,12,16,53,29.40
2013,09,12,16,54,29.30
2013,09,12,16,55,29.30
2013,09,12,16,56,29.30
2013,09,12,16,57,29.20
2013,09,12,16,58,29.10
2013,09,12,16,59,29.10
2013,09,12,17,00,29.00
2013,09,12,17,01,29.00
2013,09,12,17,02,29.00
2013,09,12,17,03,28.90
2013,09,12,17,04,28.90
2013,09,12,17,05,28.90
2013,09,12,17,06,28.90
2013,09,12,17,07,28.90
2013,09,12,17,08,28.90
2013,09,12,17,09,29.00
2013,09,12,17,10,29.00
2013,09,12,17,11,29.00
2013,09,12,17,12,29.00
2013,09,12,17,13,29.00
2013,09,12,17,14,29.00
2013,09,12,17,15,28.90
2013,09,12,17,16,28.90
2013,09,12,17,17,28.80
2013,09,12,17,18,28.80
2013,09,12,17,19,28.80